{"data":{"norad_id":59613,"intl_designator":"2024-080N","name":"STARLINK-31746","alt_names":[],"object_type":"PAYLOAD","status":"ACTIVE","operator":null,"country":"US","launch_date":"2024-04-28","launch_site_code":"AFETR","launch_vehicle":null,"mission":null,"orbit_class":"UNKNOWN","rcs_meters":null,"size_class":null,"mass_kg":null,"dimensions":null,"purposes":["comms"],"wikipedia_slug":null,"has_3d_model":false,"image_url":null,"decayed_at":null,"tle_current":{"epoch":"2026-05-24T21:49:11.817984Z","epoch_age_seconds":89654,"freshness":"FRESH","line1":"1 59613U 24080N   26144.90916456 -.00002961  00000+0 -98223-4 0  9992","line2":"2 59613  43.0038 331.3935 0001783 270.5943  89.4705 15.27545977116148","mean_motion":15.27545977,"eccentricity":0.0001783,"inclination_deg":43.0038,"raan_deg":331.3935,"arg_perigee_deg":270.5943,"mean_anomaly_deg":89.4705,"bstar":-9.8223e-5,"rev_number":11614,"period_min":94.268848314999,"perigee_km":481.92760738633,"apogee_km":484.37434267823,"semimajor_km":6861.2879750323,"source":"CELESTRAK","updated_at":"2026-05-25T13:38:19.010185Z"}}}